Regional Weather Roundup
Issued by NWS

Home | Current Version | Previous Version | Text Only | Print | Product List | Glossary On
Versions: 1 2 3 4 5 6 7 8 9 10 11 12 13 14 15 16 17 18 19 20 21 22 23 24 25 26 27 28 29 30 31 32 33 34 35 36 37 38 39 40 41 42 43 44 45 46 47 48 49 50
000
ASMX46 KSGX 131311
RWRMX

MEXICAN WEATHER ROUNDUP
NATIONAL WEATHER SERVICE SAN DIEGO CA
500 AM PST WED DEC 13 2017

BAJA CALIFORNIA

CITY           SKY/WX    TMP DP  RH WIND       PRES   REMARKS
ENSENADA NW      N/A     59  32  36 CALM      29.92R
LA PAZ         MOCLDY    61  50  67 S5        29.99
S.J. DEL CABO  CLOUDY    68  55  64 CALM      29.98
TIJUANA        CLEAR     55   3  12 E5        30.02

NORTHWESTERN MEXICO

CITY           SKY/WX    TMP DP  RH WIND       PRES   REMARKS
CULIACAN       MOCLDY    64  59  82 CALM      29.94
HERMOSILLO     CLEAR     55  36  47 CALM      29.96
JUAREZ         CLEAR     36  18  48 CALM      30.18
OBREGON        CLEAR     54  50  87 SE5       29.91

NORTHEASTERN MEXICO

CITY           SKY/WX    TMP DP  RH WIND       PRES   REMARKS
MATAMOROS      PTCLDY    41  37  87 NW5       30.20
MONCLOVA       CLEAR     46  37  71 SE8       30.16
MONTERREY      MOCLDY    41  37  87 N8        30.21R
REYNOSA        PTCLDY    43  37  81 CALM      30.21
SALTILLO       MOCLDY    37  25  60 CALM      30.27S
TORREON        MOCLDY    50  37  62 MISG      30.22
VICTORIA       PTCLDY    39  34  81 MISG      30.23

WESTERN MEXICO

CITY           SKY/WX    TMP DP  RH WIND       PRES   REMARKS
AGUASCALIENTES PTCLDY    39  23  52 N7        30.33  WCI  34
COLIMA         PTCLDY    68  55  64 N7        30.10
DURANGO        CLOUDY    39  25  56 SE3       30.29
GUADALAJARA    PTCLDY    37  27  65 CALM      30.25
MAZATLAN       LGT RAIN  66  66 100 N3        29.99R
TEPIC          MOCLDY    50  48  93 CALM      30.13
URUAPAN        MOCLDY    46  41  81 CALM      30.22
ZACATECAS      MOCLDY    39  19  45 CALM      30.28

CENTRAL MEXICO

CITY           SKY/WX    TMP DP  RH WIND       PRES   REMARKS
CUERNAVACA     MOCLDY    48  39  71 CALM      30.24
LEON           PTCLDY    39  23  52 CALM      30.36R
MEXICO CITY    CLEAR     37  30  75 E6        30.36R WCI  33
MORELIA        CLEAR     32  25  74 CALM      30.30
POZA RICA      CLOUDY    59  55  88 N5        30.24
S. LUIS POTOSI PTCLDY    32  18  55 CALM      30.32
TAMPICO        PTCLDY    57  52  82 CALM      30.22R
TOLUCA         MOCLDY    28  23  80 CALM      30.38
VERACRUZ       CLOUDY    64  63  94 S5        30.19R

SOUTHERN MEXICO

CITY           SKY/WX    TMP DP  RH WIND       PRES   REMARKS
ACAPULCO       PTCLDY    73  68  83 N8        29.96R
B. DE HUATULCO CLEAR    N/A N/A N/A CALM      30.01
MINATITLAN     CLOUDY    66  64  94 CALM      30.15
OAXACA         PTCLDY    41  39  93 N5        30.35
PTO. ESCONDIDO CLEAR     68  61  77 NE12      30.06
TAPACHULA      PTCLDY    72  70  94 CALM      29.94R
TUX. GUTIERREZ PTCLDY    54  52  94 W5        30.17R
VILLAHERMOSA   FOG       59  59 100 CALM      30.19R VSB 1/16
ZIHUATANEJO    MOCLDY    73  68  83 NE5       29.98

YUCATAN PENINSULA

CITY           SKY/WX    TMP DP  RH WIND       PRES   REMARKS
CAMPECHE       PTCLDY    59  57  94 CALM      30.13R
CANCUN         PTCLDY    59  55  88 W9        30.13R
CHETUMAL       CLEAR     57  55  94 CALM      30.16
C. DEL CARMEN  MOCLDY   N/A N/A N/A W7        30.17
COZUMEL        CLEAR     70  61  73 NW14      30.12R
MERIDA         PTCLDY    57  54  88 CALM      30.15R

$$




USA.gov is the U.S. government's official web portal to all federal, state and local government web resources and services.